Charlotte, NC

9:01 PM EDT on September 26, 2016 (GMT -0400)
Concord Regional

Weather History for KJQF - April, 2012

Change the Weather History Date:

Monday, April 16, 2012

  Actual Average (KCLT) Record (KCLT)
Temperature  
Mean Temperature 70 °F 60 °F  
Max Temperature 84 °F 72 °F 89 °F (1896)
Min Temperature 57 °F 47 °F 29 °F (1962)
Degree Days  
Heating Degree Days 0 6  
Month to date heating degree days 130  
Since 1 July heating degree days 3262  
Cooling Degree Days 6 1  
Month to date cooling degree days 15  
Year to date cooling degree days 20  
Growing Degree Days 20 (Base 50)    
Moisture  
Dew Point 56 °F    
Average Humidity 68    
Maximum Humidity 94    
Minimum Humidity 35    
Precipitation  
Precipitation 0.00 in 0.10 in 1.60 in (1883)
Month to date precipitation 1.63  
Year to date precipitation 12.37  
Snow  
Snow 0.00 in 0.00 in 0.00 in ()
Month to date snowfall 0.1  
Since 1 July snowfall 4.4  
Snow Depth -    
Sea Level Pressure  
Sea Level Pressure 30.20 in    
Wind  
Wind Speed 7 mph (SSW)    
Max Wind Speed 16 mph    
Max Gust Speed 24 mph    
Visibility 10 miles    
Events      
T = Trace of Precipitation, MM = Missing Value Source: NWS Daily Summary

Daily Weather History Graph

Daily Weather History Graph

Search for Another Location

Airport or City:

Trip Planner

Search our weather history database for the weather conditions in past years. The results will help you decide how hot, cold, wet, or windy it might be!

Date:

Astronomy

Apr. 16, 2012 Rise Set
Actual Time 6:48 AM EDT 7:57 PM EDT
Civil Twilight 6:22 AM EDT 8:23 PM EDT
Nautical Twilight 5:51 AM EDT 8:54 PM EDT
Astronomical Twilight 5:18 AM EDT 9:27 PM EDT
Moon 4:07 AM EDT (4/16) 3:58 PM EDT (4/16)
Length of Visible Light 14h 01m
Length of Day
13h 08m
Waning Crescent, 19% of the Moon is Illuminated
Apr 16
Waning Crescent
Apr 21
New
Apr 29
First Quarter
May 5
Full
May 12
Last Quarter

Hourly Weather History & Observations

Time (EDT) Temp. Heat Index Dew Point Humidity Pressure Visibility Wind Dir Wind Speed Gust Speed Precip Events Conditions
12:15 AM 66.2 °F - 59.0 °F 78% 30.22 in 10.0 mi South 5.8 mph - N/A   Clear
12:55 AM 66.2 °F - 59.0 °F 78% 30.21 in 10.0 mi South 6.9 mph - N/A   Clear
1:15 AM 64.4 °F - 59.0 °F 83% 30.21 in 10.0 mi South 5.8 mph - N/A   Clear
1:35 AM 64.4 °F - 59.0 °F 83% 30.21 in 10.0 mi South 5.8 mph - N/A   Clear
1:55 AM 64.4 °F - 59.0 °F 83% 30.21 in 10.0 mi South 6.9 mph - N/A   Clear
2:15 AM 64.4 °F - 59.0 °F 83% 30.20 in 10.0 mi South 5.8 mph - N/A   Clear
2:35 AM 64.4 °F - 57.2 °F 77% 30.19 in 10.0 mi SSW 8.1 mph 16.1 mph N/A   Clear
2:55 AM 64.4 °F - 57.2 °F 77% 30.19 in 10.0 mi South 6.9 mph - N/A   Clear
3:15 AM 62.6 °F - 55.4 °F 77% 30.19 in 10.0 mi South 4.6 mph - N/A   Clear
3:55 AM 62.6 °F - 55.4 °F 77% 30.19 in 10.0 mi SSW 5.8 mph - N/A   Clear
4:15 AM 62.6 °F - 55.4 °F 77% 30.19 in 10.0 mi SSW 5.8 mph - N/A   Clear
4:35 AM 60.8 °F - 55.4 °F 82% 30.19 in 10.0 mi South 3.5 mph - N/A   Clear
4:55 AM 60.8 °F - 55.4 °F 82% 30.19 in 10.0 mi SSW 3.5 mph - N/A   Clear
5:15 AM 59.0 °F - 55.4 °F 88% 30.20 in 10.0 mi Calm Calm - N/A   Clear
5:35 AM 59.0 °F - 53.6 °F 82% 30.20 in 10.0 mi Calm Calm - N/A   Clear
5:55 AM 59.0 °F - 53.6 °F 82% 30.21 in 10.0 mi Calm Calm - N/A   Clear
6:15 AM 59.0 °F - 53.6 °F 82% 30.22 in 10.0 mi SW 3.5 mph - N/A   Clear
6:35 AM 59.0 °F - 53.6 °F 82% 30.22 in 10.0 mi SW 3.5 mph - N/A   Clear
6:55 AM 59.0 °F - 55.4 °F 88% 30.24 in 10.0 mi SW 4.6 mph - N/A   Scattered Clouds
7:15 AM 59.0 °F - 55.4 °F 88% 30.24 in 10.0 mi SW 5.8 mph - N/A   Mostly Cloudy
7:35 AM 60.8 °F - 55.4 °F 82% 30.25 in 10.0 mi SSW 5.8 mph - N/A   Scattered Clouds
7:55 AM 62.6 °F - 57.2 °F 82% 30.25 in 10.0 mi SW 8.1 mph - N/A   Scattered Clouds
8:55 AM 66.2 °F - 57.2 °F 73% 30.25 in 10.0 mi SW 15.0 mph 19.6 mph N/A   Clear
9:55 AM 71.6 °F - 55.4 °F 57% 30.25 in 10.0 mi SW 11.5 mph - N/A   Clear
10:55 AM 57.2 °F - 55.4 °F 94% 30.25 in 10.0 mi WSW 13.8 mph 20.7 mph N/A   Clear
11:55 AM 78.8 °F - 55.4 °F 44% 30.24 in 10.0 mi SSW 11.5 mph 18.4 mph N/A   Clear
12:55 PM 80.6 °F 80.8 °F 57.2 °F 45% 30.22 in 10.0 mi SSW 13.8 mph 21.9 mph N/A   Clear
1:55 PM 82.4 °F 82.0 °F 57.2 °F 42% 30.21 in 10.0 mi SW 12.7 mph 21.9 mph N/A   Scattered Clouds
2:55 PM 82.4 °F 81.7 °F 55.4 °F 39% 30.19 in 10.0 mi SSW 11.5 mph 20.7 mph N/A   Scattered Clouds
3:55 PM 84.2 °F 83.0 °F 55.4 °F 37% 30.15 in 10.0 mi SW 16.1 mph 21.9 mph N/A   Scattered Clouds
4:55 PM 84.2 °F 82.8 °F 53.6 °F 35% 30.14 in 10.0 mi SW 15.0 mph 19.6 mph N/A   Scattered Clouds
5:55 PM 82.4 °F 81.7 °F 55.4 °F 39% 30.14 in 10.0 mi SSW 16.1 mph 24.2 mph N/A   Clear
6:55 PM 82.4 °F 81.7 °F 55.4 °F 39% 30.13 in 10.0 mi SW 11.5 mph 17.3 mph N/A   Clear
9:15 PM 73.4 °F - 55.4 °F 53% 30.17 in 10.0 mi SSW 6.9 mph - N/A   Clear
9:55 PM 73.4 °F - 55.4 °F 53% 30.17 in 10.0 mi SW 10.4 mph - N/A   Clear
10:15 PM 73.4 °F - 55.4 °F 53% 30.17 in 10.0 mi SW 9.2 mph - N/A   Clear
10:35 PM 71.6 °F - 55.4 °F 57% 30.17 in 10.0 mi SW 5.8 mph - N/A   Clear
10:55 PM 71.6 °F - 55.4 °F 57% 30.18 in 10.0 mi SW 8.1 mph - N/A   Clear
11:15 PM 71.6 °F - 55.4 °F 57% 30.17 in 10.0 mi SW 8.1 mph - N/A   Clear
11:35 PM 71.6 °F - 55.4 °F 57% 30.17 in 10.0 mi SW 9.2 mph - N/A   Clear
11:55 PM 69.8 °F - 55.4 °F 60% 30.17 in 10.0 mi SW 4.6 mph - N/A   Clear